This is the latest recevied weather packets stored in our database for station/object VK3BYD-3. If no packets are shown the sender has not sent any weather packets the latest 10 day(s).
| Time | Temp. | Humidity | Pressure | Rain* | Wind** | Luminosity | Snow |
|---|---|---|---|---|---|---|---|
| 1778236606 | 10.56° C | 85% | 1023.2 hPa | 0 mm | - | - | - |
| 1778235704 | 11.11° C | 84% | 1023.1 hPa | 0 mm | - | - | - |
| 1778234803 | 11.11° C | 84% | 1023 hPa | 0 mm | - | - | - |
| 1778233902 | 11.11° C | 83% | 1022.7 hPa | 0 mm | - | - | - |
| 1778233002 | 11.67° C | 82% | 1022.7 hPa | 0 mm | - | - | - |
| 1778232102 | 11.67° C | 81% | 1022.7 hPa | 0 mm | - | - | - |
| 1778231202 | 12.22° C | 80% | 1022.4 hPa | 0 mm | - | - | - |
| 1778230301 | 12.78° C | 79% | 1022 hPa | 0 mm | - | - | - |
| 1778229398 | 12.78° C | 78% | 1021.8 hPa | 0 mm | - | - | - |
| 1778228499 | 12.78° C | 77% | 1021.7 hPa | 0 mm | - | - | - |
| 1778227596 | 12.78° C | 78% | 1021.7 hPa | 0 mm | - | - | - |
| 1778226693 | 13.33° C | 76% | 1021.7 hPa | 0 mm | - | - | - |
| 1778225792 | 13.33° C | 75% | 1021.5 hPa | 0 mm | - | - | - |
| 1778224890 | 13.89° C | 73% | 1021.3 hPa | 0 mm | - | - | - |
| 1778223990 | 14.44° C | 72% | 1021 hPa | 0 mm | - | - | - |
| 1778223090 | 15° C | 70% | 1021 hPa | 0 mm | - | - | - |
| 1778222190 | 16.11° C | 68% | 1020.9 hPa | 0 mm | - | - | - |
| 1778221290 | 16.67° C | 66% | 1020.7 hPa | 0 mm | - | - | - |
| 1778220390 | 16.67° C | 68% | 1020.7 hPa | 0 mm | - | - | - |
| 1778219490 | 16.67° C | 69% | 1020.6 hPa | 0 mm | - | - | - |
| 1778218590 | 16.67° C | 67% | 1020.7 hPa | 0 mm | - | - | - |
| 1778217690 | 16.67° C | 66% | 1020.6 hPa | 0 mm | - | - | - |
| 1778216789 | 17.78° C | 64% | 1020.3 hPa | 0 mm | - | - | - |
| 1778215890 | 18.33° C | 64% | 1020.2 hPa | 0 mm | - | - | - |
| 1778214990 | 18.33° C | 65% | 1020 hPa | 0 mm | - | - | - |
* Rain latest hour (hover to see other rain measurements)
** Current wind speed in m/s (hover to see current wind gust speed)